Regional Weather Roundup
Issued by NWS Portland, ME

Home | Current Version | Previous Version | Text Only | Print | Product List | Glossary On
Versions: 1 2 3 4 5 6 7 8 9 10 11 12 13 14 15 16 17 18 19 20 21 22 23 24 25 26 27 28 29 30 31 32 33 34 35 36 37 38 39 40 41 42 43 44 45 46 47 48 49 50
000
ASUS41 KGYX 221110
RWRGYX
WEATHER ROUNDUP FOR MAINE AND NEW HAMPSHIRE
NATIONAL WEATHER SERVICE GRAY ME
700 AM EDT TUE JUL 22 2014

MEZ002-005-006-010-012-015-018-020-021-024-026-027-029-221200-
MAINE

CITY           SKY/WX    TMP DP  RH WIND       PRES   REMARKS
PORTLAND       SUNNY     62  59  90 S5        30.13S
SANFORD        SUNNY     59  55  88 CALM      30.13S
BAR HARBOR     SUNNY     64  63  94 S7        30.12S
WISCASSET      SUNNY     61  59  93 CALM      30.14S
ROCKLAND       MOSUNNY   61  61 100 S3        30.12S
FRYEBURG       SUNNY     62  60  93 CALM      30.14S
LEWISTONAUBURN SUNNY     61  57  88 CALM      30.13S
AUGUSTA        SUNNY     61  59  93 VRB3      30.12F
WATERVILLE     MOSUNNY   59  57  94 SW3       30.08S
BANGOR         MOSUNNY   63  59  87 S7        30.11F
GREENVILLE       N/A     66  58  75 S3        30.10F
MILLINOCKET    SUNNY     66  60  81 CALM      30.09F
HOULTON        SUNNY     64  59  83 SW6       30.05F
PRESQUE ISLE   SUNNY     64  55  72 S3        30.05F
FRENCHVILLE    SUNNY     62  58  86 S7        30.02F
CARIBOU        SUNNY     64  60  87 S5        30.02F
$$

NHZ002-005-008-009-011-012-014-221200-
NEW HAMPSHIRE

CITY           SKY/WX    TMP DP  RH WIND       PRES   REMARKS
PORTSMOUTH     SUNNY     62  59  92 SW2       30.13S
ROCHESTER      SUNNY     61  57  87 CALM      30.13S
NASHUA         SUNNY     62  60  93 NW3       30.15S
MANCHESTER     MOSUNNY   64  60  87 CALM      30.13S
CONCORD        SUNNY     61  59  93 CALM      30.14F
LACONIA        SUNNY     64  59  82 SW6       30.13F
PLYMOUTH       FAIR      60  59  97 CALM      30.14F
BERLIN         MOSUNNY   58  56  93 CALM      30.16S
WHITEFIELD     SUNNY     60  56  86 CALM      30.16S
JAFFREY        SUNNY     63  61  93 S5        30.18S
LEBANON        FOG       62  61  96 CALM      30.15S VSB<1/4
MT WASHINGTON  NOT AVBL
$$

VTZ005-007-008-221200-
VERMONT

CITY           SKY/WX    TMP DP  RH WIND       PRES   REMARKS
ST JOHNSBURY     N/A     60  57  89 MISG      30.14S
MONTPELIER     SUNNY     62  61  96 CALM      30.18S FOG
BURLINGTON     MOSUNNY   73  63  70 S6        30.11S
$$

MAZ007-012-024-CTZ003-RIZ002-NYZ038-NYZ072-221200-
SOUTHERN NEW ENGLAND AND NY

CITY           SKY/WX    TMP DP  RH WIND       PRES   REMARKS
BOSTON         MOSUNNY   67  63  87 S3        30.14S
WORCESTER      SUNNY     65  61  87 W12       30.18R
NANTUCKET      FOG       63  63 100 CALM      30.17S VSB 1/4
PROVIDENCE     SUNNY     67  62  84 SW6       30.16S
HARTFORD       MOSUNNY   68  63  84 S3        30.15S
ALBANY         MOSUNNY   70  64  81 S7        30.15S
NEW YORK CITY  MOSUNNY   73  61  65 SW3       30.17S
$$

ANZ081-ANZ082-ANZ150-NHZ014-MEZ023>029-221200-
COASTAL MARINE OBSERVATIONS

STATION/POSITION TIME  TEMP    WIND        PRES    WAVE
                       AIR SEA DIR/SP/G            HT/PER
                 (UTC) (F)     (DEG/KT/KT) (MB)    (FT/S)
MOUNT DESERT ROC 1100   56                 1020.3R
MATINICUS ROCK   1000          190/ 11/ 11 1019.8F
PORTLAND WX BUOY 1100   64 63  200/  8/  8 1020.0F   2/ 6
WELLS            1100   63 60  200/  2/  2 1019.5S
ISLE OF SHOALS   1000   62     220/  8/  8 1020.0S
JEFFREYS LEDGE   1100      67                N/A     2/ 6
CASHES LEDGE BUO 1100   63 64  VRB  8/ 10  1019.9F   3/ 7
$$

.............KEY..............
   WCI - WIND CHILL
   TC  - TEMPERATURE IN CELSIUS
   VSB - VISIBILITY IN MILES
   HX  - HEAT INDEX
   FAIR- INDICATES FEW OR NO CLOUDS BELOW 12,000 FT, WITH NO
         SIGNIFICANT WEATHER AND/OR OBSTRUCTIONS TO VISIBILITY.




USA.gov is the U.S. government's official web portal to all federal, state and local government web resources and services.